Location: *
(46.3500°N, 10.9000°E)
Time: 23:27:42
(UTC+00:00)

Vanguard 2 - Pass Details

Date: 25 April 2021
Orbit: 552 x 2938 km, 32.9° (Epoch: 12 May)

Event Time Altitude Azimuth Distance (km) Brightness Sun altitude
Rises 15:58:13 0° 272° (W) 5,937 13.5 22.8°
Reaches altitude 10° 16:04:22 10° 256° (WSW) 4,429 13.3 21.7°
Maximum altitude 16:10:45 17° 222° (SW) 3,304 11.6 20.6°
Drops below altitude 10° 16:15:45 10° 186° (S) 3,296 10.9 19.7°
Sets 16:19:21 0° 165° (SSE) 3,872 11.0 19.1°
